User: anonymous   Login
Location: Unspecified
(0.0000°N, 0.0000°E)
Time: 07:50:21
(UTC+00:00)
Language:

COSMOS 2416 - Orbit

View from above orbital plane
View from above orbital plane
View from above satellite
View from above satellite

Ground track
Ground track

The orbit data is extracted from the following two-line orbital elements,

1 28909U 05048B   17328.47891147  .00000041  00000-0  18756-3 0  9992
2 28909  82.4660 148.3822 0006492 301.9218  58.1236 12.55168487546400
Epoch (UTC): 24 November 2017 11:29:37
Eccentricity: 0.0006492
inclination: 82.4660°
perigee height: 1438 km
apogee height: 1448 km
right ascension of ascending node: 148.3822°
argument of perigee: 301.9218°
revolutions per day: 12.55168487
mean anomaly at epoch: 58.1236°
orbit number at epoch: 54640

The dashed part of the orbit path shows where the satellite is in the earth's shadow,  

DLR